owner,sensor,date,latitude,longitude,vertical_datum,direction_of_sea_water_velocity,sea_water_speed,upward_sea_water_velocity,qcFlag 
TABS,ioos:station:wmo:42048:1,1997-07-01T00:00:00Z,27.9396,-96.8429,2.0,26.2083295,22.2582524,-99999.0,'11111222,11111222,99999999' 
TABS,ioos:station:wmo:42048:1,1997-07-01T00:30:00Z,27.9396,-96.8429,2.0,27.23829541,22.46061664,-99999.0,'11111222,11111222,99999999' 
TABS,ioos:station:wmo:42048:1,1997-07-01T01:00:00Z,27.9396,-96.8429,2.0,22.3978768,26.58558444,-99999.0,'11111222,11111222,99999999' 
TABS,ioos:station:wmo:42048:1,1997-07-01T01:30:00Z,27.9396,-96.8429,2.0,22.62164787,27.11615386,-99999.0,'11111222,11111222,99999999' 
TABS,ioos:station:wmo:42048:1,1997-07-01T02:00:00Z,27.9396,-96.8429,2.0,19.7642845,30.40083058,-99999.0,'11111222,11111222,99999999' 
TABS,ioos:station:wmo:42048:1,1997-07-01T02:30:00Z,27.9396,-96.8429,2.0,22.50131814,31.93083776,-99999.0,'11111222,11111222,99999999' 
TABS,ioos:station:wmo:42048:1,1997-07-01T03:00:00Z,27.9396,-96.8429,2.0,23.12173963,32.23969758,-99999.0,'11111222,11111222,99999999' 
TABS,ioos:station:wmo:42048:1,1997-07-01T03:30:00Z,27.9396,-96.8429,2.0,25.60403467,31.72532427,-99999.0,'11111222,11111222,99999999' 
TABS,ioos:station:wmo:42048:1,1997-07-01T04:00:00Z,27.9396,-96.8429,2.0,26.33632332,33.58600899,-99999.0,'11111222,11111222,99999999' 
TABS,ioos:station:wmo:42048:1,1997-07-01T04:30:00Z,27.9396,-96.8429,2.0,25.11938413,36.86660955,-99999.0,'11111222,11111222,99999999' 
TABS,ioos:station:wmo:42048:1,1997-07-01T05:00:00Z,27.9396,-96.8429,2.0,26.56519952,36.31374395,-99999.0,'11111222,11111222,99999999' 
TABS,ioos:station:wmo:42048:1,1997-07-01T05:30:00Z,27.9396,-96.8429,2.0,29.4642954,36.96031385,-99999.0,'11111222,11111222,99999999' 
TABS,ioos:station:wmo:42048:1,1997-07-01T06:00:00Z,27.9396,-96.8429,2.0,31.62948841,37.79397836,-99999.0,'11111222,11111222,99999999' 
TABS,ioos:station:wmo:42048:1,1997-07-01T06:30:00Z,27.9396,-96.8429,2.0,34.26509534,37.31656067,-99999.0,'11111222,11111222,99999999' 
TABS,ioos:station:wmo:42048:1,1997-07-01T07:00:00Z,27.9396,-96.8429,2.0,33.57553435,38.80412993,-99999.0,'11111222,11111222,99999999' 
TABS,ioos:station:wmo:42048:1,1997-07-01T07:30:00Z,27.9396,-96.8429,2.0,35.45966192,40.06013605,-99999.0,'11111222,11111222,99999999' 
TABS,ioos:station:wmo:42048:1,1997-07-01T08:00:00Z,27.9396,-96.8429,2.0,35.73154828,40.56600794,-99999.0,'11111222,11111222,99999999' 
TABS,ioos:station:wmo:42048:1,1997-07-01T08:30:00Z,27.9396,-96.8429,2.0,37.59662034,40.05922116,-99999.0,'11111222,11111222,99999999' 
TABS,ioos:station:wmo:42048:1,1997-07-01T09:00:00Z,27.9396,-96.8429,2.0,37.06424367,44.25025424,-99999.0,'11111222,11111222,99999999' 
TABS,ioos:station:wmo:42048:1,1997-07-01T09:30:00Z,27.9396,-96.8429,2.0,42.22058321,43.45333589,-99999.0,'11111222,11111222,99999999' 
TABS,ioos:station:wmo:42048:1,1997-07-01T10:00:00Z,27.9396,-96.8429,2.0,38.25207653,42.1242543,-99999.0,'11111222,11111222,99999999' 
TABS,ioos:station:wmo:42048:1,1997-07-01T10:30:00Z,27.9396,-96.8429,2.0,37.92745764,47.03401004,-99999.0,'11111222,11111222,99999999' 
TABS,ioos:station:wmo:42048:1,1997-07-01T11:00:00Z,27.9396,-96.8429,2.0,41.18603931,47.51675178,-99999.0,'11111222,11111222,99999999' 
TABS,ioos:station:wmo:42048:1,1997-07-01T11:30:00Z,27.9396,-96.8429,2.0,37.61207826,48.33605383,-99999.0,'11111222,11111222,99999999' 
TABS,ioos:station:wmo:42048:1,1997-07-01T12:00:00Z,27.9396,-96.8429,2.0,41.69677321,47.49041693,-99999.0,'11111222,11111222,99999999' 
TABS,ioos:station:wmo:42048:1,1997-07-01T12:30:00Z,27.9396,-96.8429,2.0,40.55712796,44.90895679,-99999.0,'11111222,11111222,99999999' 
TABS,ioos:station:wmo:42048:1,1997-07-01T13:00:00Z,27.9396,-96.8429,2.0,38.87558335,49.37624631,-99999.0,'11111222,11111222,99999999' 
TABS,ioos:station:wmo:42048:1,1997-07-01T13:30:00Z,27.9396,-96.8429,2.0,38.41817597,55.15013146,-99999.0,'11111222,11111222,99999999' 
TABS,ioos:station:wmo:42048:1,1997-07-01T14:00:00Z,27.9396,-96.8429,2.0,43.48734015,51.9621747,-99999.0,'11111222,11111222,99999999' 
TABS,ioos:station:wmo:42048:1,1997-07-01T14:30:00Z,27.9396,-96.8429,2.0,40.04984457,58.59020823,-99999.0,'11111222,11111222,99999999' 
TABS,ioos:station:wmo:42048:1,1997-07-01T15:00:00Z,27.9396,-96.8429,2.0,40.45732191,63.83307372,-99999.0,'11111222,11111222,99999999' 
TABS,ioos:station:wmo:42048:1,1997-07-01T15:30:00Z,27.9396,-96.8429,2.0,41.2725132,64.82326743,-99999.0,'11111222,11111222,99999999' 
TABS,ioos:station:wmo:42048:1,1997-07-01T16:00:00Z,27.9396,-96.8429,2.0,41.59582261,60.37324656,-99999.0,'11111222,11111222,99999999' 
TABS,ioos:station:wmo:42048:1,1997-07-01T16:30:00Z,27.9396,-96.8429,2.0,40.28324476,58.98863958,-99999.0,'11111222,11111222,99999999' 
TABS,ioos:station:wmo:42048:1,1997-07-01T17:00:00Z,27.9396,-96.8429,2.0,40.38540589,64.15872349,-99999.0,'11111222,11111222,99999999' 
TABS,ioos:station:wmo:42048:1,1997-07-01T17:30:00Z,27.9396,-96.8429,2.0,38.73986197,63.80797599,-99999.0,'11111222,11111222,99999999' 
TABS,ioos:station:wmo:42048:1,1997-07-01T18:00:00Z,27.9396,-96.8429,2.0,40.38540589,64.15872349,-99999.0,'11111222,11111222,99999999' 
TABS,ioos:station:wmo:42048:1,1997-07-01T18:30:00Z,27.9396,-96.8429,2.0,42.3774115,62.12076142,-99999.0,'11111222,11111222,99999999' 
TABS,ioos:station:wmo:42048:1,1997-07-01T19:00:00Z,27.9396,-96.8429,2.0,42.16922189,59.70317328,-99999.0,'11111222,11111222,99999999' 
TABS,ioos:station:wmo:42048:1,1997-07-01T19:30:00Z,27.9396,-96.8429,2.0,41.11510213,62.30493159,-99999.0,'11111222,11111222,99999999' 
TABS,ioos:station:wmo:42048:1,1997-07-01T20:00:00Z,27.9396,-96.8429,2.0,44.13712907,62.9113551,-99999.0,'11111222,11111222,99999999' 
TABS,ioos:station:wmo:42048:1,1997-07-01T20:30:00Z,27.9396,-96.8429,2.0,43.82963453,61.96255401,-99999.0,'11111222,11111222,99999999' 
TABS,ioos:station:wmo:42048:1,1997-07-01T21:00:00Z,27.9396,-96.8429,2.0,43.21570536,57.45200171,-99999.0,'11111222,11111222,99999999' 
TABS,ioos:station:wmo:42048:1,1997-07-01T21:30:00Z,27.9396,-96.8429,2.0,39.49255767,55.99264416,-99999.0,'11111222,11111222,99999999' 
TABS,ioos:station:wmo:42048:1,1997-07-01T22:00:00Z,27.9396,-96.8429,2.0,40.95790257,53.86704466,-99999.0,'11111222,11111222,99999999' 
TABS,ioos:station:wmo:42048:1,1997-07-01T22:30:00Z,27.9396,-96.8429,2.0,36.39787778,50.72572227,-99999.0,'11111222,11111222,99999999' 
TABS,ioos:station:wmo:42048:1,1997-07-01T23:00:00Z,27.9396,-96.8429,2.0,34.05185333,46.57632983,-99999.0,'11111222,11111222,99999999' 
TABS,ioos:station:wmo:42048:1,1997-07-01T23:30:00Z,27.9396,-96.8429,2.0,28.71153322,46.21169657,-99999.0,'11111222,11111222,99999999' 
TABS,ioos:station:wmo:42048:1,1997-07-02T00:00:00Z,27.9396,-96.8429,2.0,28.29261088,42.13325171,-99999.0,'11111222,11111222,99999999' 
TABS,ioos:station:wmo:42048:1,1997-07-02T00:30:00Z,27.9396,-96.8429,2.0,23.8242412,39.09094141,-99999.0,'11111222,11111222,99999999' 
TABS,ioos:station:wmo:42048:1,1997-07-02T01:00:00Z,27.9396,-96.8429,2.0,19.89912338,40.72129296,-99999.0,'11111222,11111222,99999999' 
TABS,ioos:station:wmo:42048:1,1997-07-02T01:30:00Z,27.9396,-96.8429,2.0,18.96351953,40.80460391,-99999.0,'11111222,11111222,99999999' 
TABS,ioos:station:wmo:42048:1,1997-07-02T02:00:00Z,27.9396,-96.8429,2.0,18.89531226,40.94649191,-99999.0,'11111222,11111222,99999999' 
TABS,ioos:station:wmo:42048:1,1997-07-02T02:30:00Z,27.9396,-96.8429,2.0,16.51528728,43.51523067,-99999.0,'11111222,11111222,99999999' 
TABS,ioos:station:wmo:42048:1,1997-07-02T03:00:00Z,27.9396,-96.8429,2.0,17.06911663,43.64234755,-99999.0,'11111222,11111222,99999999' 
TABS,ioos:station:wmo:42048:1,1997-07-02T03:30:00Z,27.9396,-96.8429,2.0,21.17091563,45.38297588,-99999.0,'11111222,11111222,99999999' 
TABS,ioos:station:wmo:42048:1,1997-07-02T04:00:00Z,27.9396,-96.8429,2.0,17.93825984,48.86535173,-99999.0,'11111222,11111222,99999999' 
TABS,ioos:station:wmo:42048:1,1997-07-02T04:30:00Z,27.9396,-96.8429,2.0,16.55053167,48.65582391,-99999.0,'11111222,11111222,99999999' 
TABS,ioos:station:wmo:42048:1,1997-07-02T05:00:00Z,27.9396,-96.8429,2.0,14.5816799,53.26566061,-99999.0,'11111222,11111222,99999999' 
TABS,ioos:station:wmo:42048:1,1997-07-02T05:30:00Z,27.9396,-96.8429,2.0,14.55037709,52.1836392,-99999.0,'11111222,11111222,99999999' 
TABS,ioos:station:wmo:42048:1,1997-07-02T06:00:00Z,27.9396,-96.8429,2.0,16.65492021,53.03485741,-99999.0,'11111222,11111222,99999999' 
TABS,ioos:station:wmo:42048:1,1997-07-02T06:30:00Z,27.9396,-96.8429,2.0,18.56413208,43.53518692,-99999.0,'11111222,11111222,99999999' 
TABS,ioos:station:wmo:42048:1,1997-07-02T07:00:00Z,27.9396,-96.8429,2.0,19.82070138,48.77974682,-99999.0,'11111222,11111222,99999999' 
TABS,ioos:station:wmo:42048:1,1997-07-02T07:30:00Z,27.9396,-96.8429,2.0,29.38020437,46.16790444,-99999.0,'11111222,11111222,99999999' 
TABS,ioos:station:wmo:42048:1,1997-07-02T08:00:00Z,27.9396,-96.8429,2.0,40.85290579,40.77247233,-99999.0,'11111222,11111222,99999999' 
TABS,ioos:station:wmo:42048:1,1997-07-02T08:30:00Z,27.9396,-96.8429,2.0,36.96313499,36.92004875,-99999.0,'11111222,11111222,99999999' 
TABS,ioos:station:wmo:42048:1,1997-07-02T09:00:00Z,27.9396,-96.8429,2.0,40.85280926,26.20328224,-99999.0,'11111222,11111222,99999999' 
TABS,ioos:station:wmo:42048:1,1997-07-02T09:30:00Z,27.9396,-96.8429,2.0,32.00243294,39.36196133,-99999.0,'11111222,11111222,99999999' 
TABS,ioos:station:wmo:42048:1,1997-07-02T10:00:00Z,27.9396,-96.8429,2.0,36.45870685,37.61096914,-99999.0,'11111222,11111222,99999999' 
TABS,ioos:station:wmo:42048:1,1997-07-02T10:30:00Z,27.9396,-96.8429,2.0,41.48455372,41.16744466,-99999.0,'11111222,11111222,99999999' 
TABS,ioos:station:wmo:42048:1,1997-07-02T11:00:00Z,27.9396,-96.8429,2.0,39.23079809,39.81379158,-99999.0,'11111222,11111222,99999999' 
TABS,ioos:station:wmo:42048:1,1997-07-02T11:30:00Z,27.9396,-96.8429,2.0,48.42242894,49.39464445,-99999.0,'11111222,11111222,99999999' 
TABS,ioos:station:wmo:42048:1,1997-07-02T12:00:00Z,27.9396,-96.8429,2.0,51.15989582,45.14068785,-99999.0,'11111222,11111222,99999999' 
TABS,ioos:station:wmo:42048:1,1997-07-02T12:30:00Z,27.9396,-96.8429,2.0,51.76962659,52.72886591,-99999.0,'11111222,11111222,99999999' 
TABS,ioos:station:wmo:42048:1,1997-07-02T13:00:00Z,27.9396,-96.8429,2.0,49.51867846,60.13542384,-99999.0,'11111222,11111222,99999999' 
TABS,ioos:station:wmo:42048:1,1997-07-02T13:30:00Z,27.9396,-96.8429,2.0,48.09243617,50.85846439,-99999.0,'11111222,11111222,99999999' 
TABS,ioos:station:wmo:42048:1,1997-07-02T14:00:00Z,27.9396,-96.8429,2.0,51.04645092,45.98440714,-99999.0,'11111222,11111222,99999999' 
TABS,ioos:station:wmo:42048:1,1997-07-02T14:30:00Z,27.9396,-96.8429,2.0,51.40675506,44.42209473,-99999.0,'11111222,11111222,99999999' 
TABS,ioos:station:wmo:42048:1,1997-07-02T15:00:00Z,27.9396,-96.8429,2.0,38.77419993,80.654538,-99999.0,'11111222,11111222,99999999' 
TABS,ioos:station:wmo:42048:1,1997-07-02T15:30:00Z,27.9396,-96.8429,2.0,36.80745345,80.58404805,-99999.0,'11111222,11111222,99999999' 
TABS,ioos:station:wmo:42048:1,1997-07-02T16:00:00Z,27.9396,-96.8429,2.0,37.69199393,86.99495215,-99999.0,'11111222,11111222,99999999' 
TABS,ioos:station:wmo:42048:1,1997-07-02T16:30:00Z,27.9396,-96.8429,2.0,36.61792891,88.18485357,-99999.0,'11111222,11111222,99999999' 
TABS,ioos:station:wmo:42048:1,1997-07-02T17:00:00Z,27.9396,-96.8429,2.0,36.88748893,91.84600427,-99999.0,'11111222,11111222,99999999' 
TABS,ioos:station:wmo:42048:1,1997-07-02T17:30:00Z,27.9396,-96.8429,2.0,38.57367075,91.28835249,-99999.0,'11111222,11111222,99999999' 
TABS,ioos:station:wmo:42048:1,1997-07-02T18:00:00Z,27.9396,-96.8429,2.0,36.98253222,90.64617477,-99999.0,'11111222,11111222,99999999' 
TABS,ioos:station:wmo:42048:1,1997-07-02T18:30:00Z,27.9396,-96.8429,2.0,36.15142419,90.41911136,-99999.0,'11111222,11111222,99999999' 
TABS,ioos:station:wmo:42048:1,1997-07-02T19:00:00Z,27.9396,-96.8429,2.0,35.23093562,93.7643653,-99999.0,'11111222,11111222,99999999' 
TABS,ioos:station:wmo:42048:1,1997-07-02T19:30:00Z,27.9396,-96.8429,2.0,35.76751847,99.16235778,-99999.0,'11111222,11111222,99999999' 
TABS,ioos:station:wmo:42048:1,1997-07-02T20:00:00Z,27.9396,-96.8429,2.0,36.1294727,95.01193609,-99999.0,'11111222,11111222,99999999' 
TABS,ioos:station:wmo:42048:1,1997-07-02T20:30:00Z,27.9396,-96.8429,2.0,36.81684455,96.97004177,-99999.0,'11111222,11111222,99999999' 
TABS,ioos:station:wmo:42048:1,1997-07-02T21:00:00Z,27.9396,-96.8429,2.0,38.35753369,92.91531198,-99999.0,'11111222,11111222,99999999' 
TABS,ioos:station:wmo:42048:1,1997-07-02T21:30:00Z,27.9396,-96.8429,2.0,39.39943184,93.89948669,-99999.0,'11111222,11111222,99999999' 
TABS,ioos:station:wmo:42048:1,1997-07-02T22:00:00Z,27.9396,-96.8429,2.0,39.50829655,92.50405072,-99999.0,'11111222,11111222,99999999' 
TABS,ioos:station:wmo:42048:1,1997-07-02T22:30:00Z,27.9396,-96.8429,2.0,40.61286242,92.25076368,-99999.0,'11111222,11111222,99999999' 
TABS,ioos:station:wmo:42048:1,1997-07-02T23:00:00Z,27.9396,-96.8429,2.0,41.1604865,86.48235947,-99999.0,'11111222,11111222,99999999' 
TABS,ioos:station:wmo:42048:1,1997-07-02T23:30:00Z,27.9396,-96.8429,2.0,40.98654921,81.32581202,-99999.0,'11111222,11111222,99999999' 
TABS,ioos:station:wmo:42048:1,1997-07-03T00:00:00Z,27.9396,-96.8429,2.0,41.35737374,78.0171526,-99999.0,'11111222,11111222,99999999' 
TABS,ioos:station:wmo:42048:1,1997-07-03T00:30:00Z,27.9396,-96.8429,2.0,38.46079839,79.53665381,-99999.0,'11111222,11111222,99999999' 
TABS,ioos:station:wmo:42048:1,1997-07-03T01:00:00Z,27.9396,-96.8429,2.0,39.66941736,73.75201218,-99999.0,'11111222,11111222,99999999' 
TABS,ioos:station:wmo:42048:1,1997-07-03T01:30:00Z,27.9396,-96.8429,2.0,38.76890079,74.72303326,-99999.0,'11111222,11111222,99999999' 
TABS,ioos:station:wmo:42048:1,1997-07-03T02:00:00Z,27.9396,-96.8429,2.0,39.6106006,74.07872704,-99999.0,'11111222,11111222,99999999' 
TABS,ioos:station:wmo:42048:1,1997-07-03T02:30:00Z,27.9396,-96.8429,2.0,36.91889549,72.68402644,-99999.0,'11111222,11111222,99999999' 
TABS,ioos:station:wmo:42048:1,1997-07-03T03:00:00Z,27.9396,-96.8429,2.0,38.1361686,71.41343641,-99999.0,'11111222,11111222,99999999' 
TABS,ioos:station:wmo:42048:1,1997-07-03T03:30:00Z,27.9396,-96.8429,2.0,36.31211292,70.45133994,-99999.0,'11111222,11111222,99999999' 
TABS,ioos:station:wmo:42048:1,1997-07-03T04:00:00Z,27.9396,-96.8429,2.0,35.6065874,71.65742111,-99999.0,'11111222,11111222,99999999' 
TABS,ioos:station:wmo:42048:1,1997-07-03T04:30:00Z,27.9396,-96.8429,2.0,35.77358057,70.3408793,-99999.0,'11111222,11111222,99999999' 
TABS,ioos:station:wmo:42048:1,1997-07-03T05:00:00Z,27.9396,-96.8429,2.0,33.52670896,70.95476446,-99999.0,'11111222,11111222,99999999' 
TABS,ioos:station:wmo:42048:1,1997-07-03T05:30:00Z,27.9396,-96.8429,2.0,34.1304747,70.38243886,-99999.0,'11111222,11111222,99999999' 
TABS,ioos:station:wmo:42048:1,1997-07-03T06:00:00Z,27.9396,-96.8429,2.0,32.65337834,70.96609472,-99999.0,'11111222,11111222,99999999' 
TABS,ioos:station:wmo:42048:1,1997-07-03T06:30:00Z,27.9396,-96.8429,2.0,33.62258311,70.50521754,-99999.0,'11111222,11111222,99999999' 
TABS,ioos:station:wmo:42048:1,1997-07-03T07:00:00Z,27.9396,-96.8429,2.0,33.68797508,71.44815883,-99999.0,'11111222,11111222,99999999' 
TABS,ioos:station:wmo:42048:1,1997-07-03T07:30:00Z,27.9396,-96.8429,2.0,32.3532813,70.72966139,-99999.0,'11111222,11111222,99999999' 
TABS,ioos:station:wmo:42048:1,1997-07-03T08:00:00Z,27.9396,-96.8429,2.0,33.52095967,70.42227063,-99999.0,'11111222,11111222,99999999' 
TABS,ioos:station:wmo:42048:1,1997-07-03T08:30:00Z,27.9396,-96.8429,2.0,32.354017,72.67161894,-99999.0,'11111222,11111222,99999999' 
TABS,ioos:station:wmo:42048:1,1997-07-03T09:00:00Z,27.9396,-96.8429,2.0,33.02903108,71.62488464,-99999.0,'11111222,11111222,99999999' 
TABS,ioos:station:wmo:42048:1,1997-07-03T09:30:00Z,27.9396,-96.8429,2.0,33.28185894,70.04931977,-99999.0,'11111222,11111222,99999999' 
TABS,ioos:station:wmo:42048:1,1997-07-03T10:00:00Z,27.9396,-96.8429,2.0,34.09781322,70.17412415,-99999.0,'11111222,11111222,99999999' 
TABS,ioos:station:wmo:42048:1,1997-07-03T10:30:00Z,27.9396,-96.8429,2.0,32.94319758,66.58632367,-99999.0,'11111222,11111222,99999999' 
TABS,ioos:station:wmo:42048:1,1997-07-03T11:00:00Z,27.9396,-96.8429,2.0,32.2546473,71.18483055,-99999.0,'11111222,11111222,99999999' 
TABS,ioos:station:wmo:42048:1,1997-07-03T11:30:00Z,27.9396,-96.8429,2.0,32.47966297,68.52908944,-99999.0,'11111222,11111222,99999999' 
TABS,ioos:station:wmo:42048:1,1997-07-03T12:00:00Z,27.9396,-96.8429,2.0,31.88933689,74.75226418,-99999.0,'11111222,11111222,99999999' 
TABS,ioos:station:wmo:42048:1,1997-07-03T12:30:00Z,27.9396,-96.8429,2.0,33.56201168,74.37993547,-99999.0,'11111222,11111222,99999999' 
TABS,ioos:station:wmo:42048:1,1997-07-03T13:00:00Z,27.9396,-96.8429,2.0,32.6029671,74.10742068,-99999.0,'11111222,11111222,99999999' 
TABS,ioos:station:wmo:42048:1,1997-07-03T13:30:00Z,27.9396,-96.8429,2.0,35.66091109,64.9244561,-99999.0,'11111222,11111222,99999999' 
TABS,ioos:station:wmo:42048:1,1997-07-03T14:00:00Z,27.9396,-96.8429,2.0,34.63928338,62.12107694,-99999.0,'11111222,11111222,99999999' 
TABS,ioos:station:wmo:42048:1,1997-07-03T14:30:00Z,27.9396,-96.8429,2.0,34.46611498,64.51477505,-99999.0,'11111222,11111222,99999999' 
TABS,ioos:station:wmo:42048:1,1997-07-03T15:00:00Z,27.9396,-96.8429,2.0,36.19333313,75.69727934,-99999.0,'11111222,11111222,99999999' 
TABS,ioos:station:wmo:42048:1,1997-07-03T15:30:00Z,27.9396,-96.8429,2.0,35.22247573,69.4927284,-99999.0,'11111222,11111222,99999999' 
TABS,ioos:station:wmo:42048:1,1997-07-03T16:00:00Z,27.9396,-96.8429,2.0,34.7180779,61.99772335,-99999.0,'11111222,11111222,99999999' 
TABS,ioos:station:wmo:42048:1,1997-07-03T16:30:00Z,27.9396,-96.8429,2.0,35.41789591,72.76536882,-99999.0,'11111222,11111222,99999999' 
TABS,ioos:station:wmo:42048:1,1997-07-03T17:00:00Z,27.9396,-96.8429,2.0,30.07241085,70.76545202,-99999.0,'11111222,11111222,99999999' 
TABS,ioos:station:wmo:42048:1,1997-07-03T17:30:00Z,27.9396,-96.8429,2.0,28.7714845,69.3516294,-99999.0,'11111222,11111222,99999999' 
TABS,ioos:station:wmo:42048:1,1997-07-03T18:00:00Z,27.9396,-96.8429,2.0,34.62839457,65.5521632,-99999.0,'11111222,11111222,99999999' 
TABS,ioos:station:wmo:42048:1,1997-07-03T18:30:00Z,27.9396,-96.8429,2.0,43.09733767,63.4624708,-99999.0,'11111222,11111222,99999999' 
TABS,ioos:station:wmo:42048:1,1997-07-03T19:00:00Z,27.9396,-96.8429,2.0,41.94422752,59.29036094,-99999.0,'11111222,11111222,99999999' 
TABS,ioos:station:wmo:42048:1,1997-07-03T19:30:00Z,27.9396,-96.8429,2.0,39.36404276,58.9678565,-99999.0,'11111222,11111222,99999999' 
TABS,ioos:station:wmo:42048:1,1997-07-03T20:00:00Z,27.9396,-96.8429,2.0,44.42678568,53.0003066,-99999.0,'11111222,11111222,99999999' 
TABS,ioos:station:wmo:42048:1,1997-07-03T20:30:00Z,27.9396,-96.8429,2.0,44.36162149,57.10948958,-99999.0,'11111222,11111222,99999999' 
TABS,ioos:station:wmo:42048:1,1997-07-03T21:00:00Z,27.9396,-96.8429,2.0,43.99383832,72.0723671,-99999.0,'11111222,11111222,99999999' 
TABS,ioos:station:wmo:42048:1,1997-07-03T21:30:00Z,27.9396,-96.8429,2.0,41.85278887,86.41858886,-99999.0,'11111222,11111222,99999999' 
TABS,ioos:station:wmo:42048:1,1997-07-03T22:00:00Z,27.9396,-96.8429,2.0,40.7693794,89.90612994,-99999.0,'11111222,11111222,99999999' 
TABS,ioos:station:wmo:42048:1,1997-07-03T22:30:00Z,27.9396,-96.8429,2.0,42.17690202,91.87983566,-99999.0,'11111222,11111222,99999999' 
TABS,ioos:station:wmo:42048:1,1997-07-03T23:00:00Z,27.9396,-96.8429,2.0,43.53801242,86.74074533,-99999.0,'11111222,11111222,99999999' 
TABS,ioos:station:wmo:42048:1,1997-07-03T23:30:00Z,27.9396,-96.8429,2.0,41.59311514,86.85895003,-99999.0,'11111222,11111222,99999999' 
TABS,ioos:station:wmo:42048:1,1997-07-04T00:00:00Z,27.9396,-96.8429,2.0,41.00667395,89.24850755,-99999.0,'11111222,11111222,99999999' 
TABS,ioos:station:wmo:42048:1,1997-07-04T00:30:00Z,27.9396,-96.8429,2.0,41.50863792,91.72644221,-99999.0,'11111222,11111222,99999999' 
TABS,ioos:station:wmo:42048:1,1997-07-04T01:00:00Z,27.9396,-96.8429,2.0,42.91491786,86.86902152,-99999.0,'11111222,11111222,99999999' 
TABS,ioos:station:wmo:42048:1,1997-07-04T01:30:00Z,27.9396,-96.8429,2.0,40.11345853,85.3326901,-99999.0,'11111222,11111222,99999999' 
TABS,ioos:station:wmo:42048:1,1997-07-04T02:00:00Z,27.9396,-96.8429,2.0,39.53704574,81.92273738,-99999.0,'11111222,11111222,99999999' 
TABS,ioos:station:wmo:42048:1,1997-07-04T02:30:00Z,27.9396,-96.8429,2.0,38.39881715,81.56103236,-99999.0,'11111222,11111222,99999999' 
TABS,ioos:station:wmo:42048:1,1997-07-04T03:00:00Z,27.9396,-96.8429,2.0,37.01290693,83.40625936,-99999.0,'11111222,11111222,99999999' 
TABS,ioos:station:wmo:42048:1,1997-07-04T03:30:00Z,27.9396,-96.8429,2.0,39.26371391,81.21486563,-99999.0,'11111222,11111222,99999999' 
TABS,ioos:station:wmo:42048:1,1997-07-04T04:00:00Z,27.9396,-96.8429,2.0,37.1590551,75.72496352,-99999.0,'11111222,11111222,99999999' 
TABS,ioos:station:wmo:42048:1,1997-07-04T04:30:00Z,27.9396,-96.8429,2.0,37.72647215,75.73246068,-99999.0,'11111222,11111222,99999999' 
TABS,ioos:station:wmo:42048:1,1997-07-04T05:00:00Z,27.9396,-96.8429,2.0,35.96523852,79.15986988,-99999.0,'11111222,11111222,99999999' 
TABS,ioos:station:wmo:42048:1,1997-07-04T05:30:00Z,27.9396,-96.8429,2.0,37.35510983,74.41266693,-99999.0,'11111222,11111222,99999999' 
TABS,ioos:station:wmo:42048:1,1997-07-04T06:00:00Z,27.9396,-96.8429,2.0,36.18022944,71.43517691,-99999.0,'11111222,11111222,99999999' 
TABS,ioos:station:wmo:42048:1,1997-07-04T06:30:00Z,27.9396,-96.8429,2.0,37.31391211,77.18831647,-99999.0,'11111222,11111222,99999999' 
TABS,ioos:station:wmo:42048:1,1997-07-04T07:00:00Z,27.9396,-96.8429,2.0,38.3706444,73.92735421,-99999.0,'11111222,11111222,99999999' 
TABS,ioos:station:wmo:42048:1,1997-07-04T07:30:00Z,27.9396,-96.8429,2.0,38.69534919,75.78645591,-99999.0,'11111222,11111222,99999999' 
TABS,ioos:station:wmo:42048:1,1997-07-04T08:00:00Z,27.9396,-96.8429,2.0,38.20456283,75.65452135,-99999.0,'11111222,11111222,99999999' 
TABS,ioos:station:wmo:42048:1,1997-07-04T08:30:00Z,27.9396,-96.8429,2.0,38.69534919,75.78645591,-99999.0,'11111222,11111222,99999999' 
TABS,ioos:station:wmo:42048:1,1997-07-04T09:00:00Z,27.9396,-96.8429,2.0,36.68084934,72.0843929,-99999.0,'11111222,11111222,99999999' 
TABS,ioos:station:wmo:42048:1,1997-07-04T09:30:00Z,27.9396,-96.8429,2.0,38.9504431,72.99811641,-99999.0,'11111222,11111222,99999999' 
TABS,ioos:station:wmo:42048:1,1997-07-04T10:00:00Z,27.9396,-96.8429,2.0,38.04232833,73.02328464,-99999.0,'11111222,11111222,99999999' 
TABS,ioos:station:wmo:42048:1,1997-07-04T10:30:00Z,27.9396,-96.8429,2.0,37.87862688,71.3530553,-99999.0,'11111222,11111222,99999999' 
TABS,ioos:station:wmo:42048:1,1997-07-04T11:00:00Z,27.9396,-96.8429,2.0,38.21658168,72.25595408,-99999.0,'11111222,11111222,99999999' 
TABS,ioos:station:wmo:42048:1,1997-07-04T11:30:00Z,27.9396,-96.8429,2.0,38.13129993,82.77405511,-99999.0,'11111222,11111222,99999999' 
TABS,ioos:station:wmo:42048:1,1997-07-04T12:00:00Z,27.9396,-96.8429,2.0,35.88647605,93.79381909,-99999.0,'11111222,11111222,99999999' 
TABS,ioos:station:wmo:42048:1,1997-07-04T12:30:00Z,27.9396,-96.8429,2.0,34.15964837,95.79716593,-99999.0,'11111222,11111222,99999999' 
TABS,ioos:station:wmo:42048:1,1997-07-04T13:00:00Z,27.9396,-96.8429,2.0,35.25530108,95.2498231,-99999.0,'11111222,11111222,99999999' 
TABS,ioos:station:wmo:42048:1,1997-07-04T13:30:00Z,27.9396,-96.8429,2.0,34.77642716,93.78060034,-99999.0,'11111222,11111222,99999999' 
TABS,ioos:station:wmo:42048:1,1997-07-04T14:00:00Z,27.9396,-96.8429,2.0,37.57050158,78.19784396,-99999.0,'11111222,11111222,99999999' 
TABS,ioos:station:wmo:42048:1,1997-07-04T14:30:00Z,27.9396,-96.8429,2.0,34.79429305,85.64219638,-99999.0,'11111222,11111222,99999999' 
TABS,ioos:station:wmo:42048:1,1997-07-04T15:00:00Z,27.9396,-96.8429,2.0,48.80189686,74.65090622,-99999.0,'11111222,11111222,99999999' 
TABS,ioos:station:wmo:42048:1,1997-07-04T15:30:00Z,27.9396,-96.8429,2.0,51.60100074,66.92583507,-99999.0,'11111222,11111222,99999999' 
TABS,ioos:station:wmo:42048:1,1997-07-04T16:00:00Z,27.9396,-96.8429,2.0,50.0666219,59.65125062,-99999.0,'11111222,11111222,99999999' 